Weather History for EHFZ - January, 2014

Change the Weather History Date:

Tuesday, January 28, 2014

  Actual Average Record
Temperature  
Mean Temperature 42 °F -  
Max Temperature 45 °F - - ()
Min Temperature 40 °F - - ()
Degree Days  
Heating Degree Days 22    
Moisture  
Dew Point 37 °F    
Average Humidity 76    
Maximum Humidity 87    
Minimum Humidity 58    
Precipitation  
Precipitation 0.00 in - - ()
Sea Level Pressure  
Sea Level Pressure 29.29 in    
Wind  
Wind Speed 29 mph ()    
Max Wind Speed 47 mph    
Max Gust Speed 59 mph    
Visibility 7.0 miles    
Events Rain    
T = Trace of Precipitation, MM = Missing Value Source: Averaged Metar Reports

Daily Weather History Graph

Daily Weather History Graph

Search for Another Location

Airport or City:

Trip Planner

Search our weather history database for the weather conditions in past years. The results will help you decide how hot, cold, wet, or windy it might be!

Date:

Astronomy

Jan. 28, 2014 Rise Set
Actual Time 8:38 AM CET 5:16 PM CET
Civil Twilight 7:58 AM CET 5:55 PM CET
Nautical Twilight 7:15 AM CET 6:39 PM CET
Astronomical Twilight 6:33 AM CET 7:20 PM CET
Moon 6:11 AM CET (1/28) 2:42 PM CET (1/28)
Length of Visible Light 9h 57m
Length of Day
8h 37m
Waning Crescent, 9% of the Moon is Illuminated
Jan 28
Waning Crescent
Jan 30
New
Feb 6
First Quarter
Feb 15
Full
Feb 22
Last Quarter

Hourly Weather History & Observations

Time (CET) Temp. Windchill Dew Point Humidity Pressure Visibility Wind Dir Wind Speed Gust Speed Precip Events Conditions
12:00 AM 45 °F - 39 °F 73% 29.19 in 12 mi South 17.9 mph - -   Clear
12:25 AM 44.6 °F 37.2 °F 39.2 °F 81% 29.18 in 6.2 mi South 17.3 mph - N/A   Unknown
12:55 AM 42.8 °F 33.8 °F 37.4 °F 81% 29.18 in 3.7 mi South 21.9 mph 33.4 mph N/A   Unknown
1:00 AM 44 °F - 39 °F 77% 29.19 in 6 mi South 17.9 mph - - Rain Rain Showers
1:25 AM 44.6 °F 35.9 °F 39.2 °F 81% 29.18 in 6.2 mi SSW 23.0 mph - N/A   Unknown
1:55 AM 44.6 °F 36.4 °F 39.2 °F 81% 29.18 in 6.2 mi SSW 20.7 mph - N/A   Unknown
2:00 AM 44 °F - 40 °F 79% 29.20 in 11 mi South 17.9 mph - -   Unknown Precipitation
2:25 AM 44.6 °F 35.7 °F 39.2 °F 81% 29.18 in 6.2 mi South 24.2 mph - N/A   Unknown
2:55 AM 42.8 °F 32.3 °F 39.2 °F 87% 29.21 in 6.2 mi South 29.9 mph - N/A Rain Light Rain
3:00 AM 43 °F - 38 °F 77% 29.21 in 12 mi South 29.1 mph - - Rain Light Rain Showers
3:25 AM 42.8 °F 33.1 °F 37.4 °F 81% 29.18 in 6.2 mi South 25.3 mph - N/A   Unknown
3:55 AM 42.8 °F 32.7 °F 39.2 °F 87% 29.18 in 5.6 mi South 27.6 mph - N/A   Unknown
4:00 AM 44 °F - 39 °F 76% 29.20 in 11 mi South 26.8 mph - - Rain Rain
4:25 AM 44.6 °F 34.4 °F 39.2 °F 81% 29.18 in 6.2 mi South 32.2 mph - N/A   Unknown
4:55 AM 42.8 °F 31.9 °F 37.4 °F 81% 29.18 in 5.0 mi South 32.2 mph - N/A Rain Light Rain
5:00 AM 44 °F - 39 °F 76% 29.21 in 12 mi South 22.4 mph - - Rain Rain Showers
5:25 AM 42.8 °F 31.9 °F 39.2 °F 87% 29.21 in 6.2 mi South 32.2 mph - N/A   Unknown
5:55 AM 44.6 °F 34.2 °F 39.2 °F 81% 29.21 in 6.2 mi South 33.4 mph - N/A   Unknown
6:00 AM 45 °F - 39 °F 72% 29.22 in 9 mi South 24.6 mph - - Rain Light Rain Showers
6:25 AM 44.6 °F 33.2 °F 41.0 °F 87% 29.21 in 5.6 mi South 41.4 mph - N/A Rain Light Rain
6:55 AM 44.6 °F 33.2 °F 39.2 °F 81% 29.21 in 6.2 mi South 41.4 mph - N/A   Unknown
7:00 AM 44 °F - 39 °F 78% 29.23 in 8 mi South 33.6 mph - - Rain Rain
7:25 AM 44.6 °F 33.3 °F 39.2 °F 81% 29.21 in 6.2 mi SSE 40.3 mph - N/A   Unknown
7:55 AM 44.6 °F 33.2 °F 37.4 °F 76% 29.24 in 6.2 mi SSE 41.4 mph - N/A   Unknown
8:00 AM 44 °F - 38 °F 72% 29.24 in 9 mi SSE 35.8 mph - -  
8:25 AM 44.6 °F 33.5 °F 39.2 °F 81% 29.24 in 6.2 mi SSE 39.1 mph - N/A   Unknown
8:55 AM 42.8 °F 31.1 °F 37.4 °F 81% 29.24 in 6.2 mi SSE 38.0 mph - N/A   Unknown
9:00 AM 43 °F - 38 °F 77% 29.27 in 8 mi SSE 31.3 mph - -  
9:25 AM 42.8 °F 31.0 °F 37.4 °F 81% 29.27 in 6.2 mi SSE 39.1 mph - N/A   Unknown
9:55 AM 42.8 °F 31.1 °F 37.4 °F 81% 29.27 in 6.2 mi SSE 38.0 mph - N/A   Unknown
10:00 AM 43 °F - 37 °F 73% 29.28 in 7 mi SSE 33.6 mph - -  
10:25 AM 42.8 °F 30.8 °F 35.6 °F 76% 29.27 in 6.2 mi SSE 40.3 mph - N/A   Unknown
10:55 AM 41.0 °F 28.0 °F 37.4 °F 87% 29.27 in 6.2 mi SSE 42.6 mph - N/A   Unknown
11:00 AM 42 °F - 37 °F 75% 29.30 in 7 mi SSE 33.6 mph - -  
11:25 AM 41.0 °F 28.3 °F 35.6 °F 81% 29.30 in 6.2 mi SSE 40.3 mph - N/A   Unknown
11:55 AM 41.0 °F 27.6 °F 35.6 °F 81% 29.30 in 6.2 mi SSE 46.0 mph - N/A   Unknown
12:00 PM 41 °F - 36 °F 78% 29.31 in 8 mi SSE 35.8 mph - -  
12:25 PM 41.0 °F 27.7 °F 35.6 °F 81% 29.30 in 6.2 mi SSE 44.9 mph - N/A   Unknown
12:55 PM 41.0 °F 28.2 °F 35.6 °F 81% 29.30 in 6.2 mi SSE 41.4 mph - N/A   Unknown
1:00 PM 41 °F - 35 °F 72% 29.31 in 8 mi SSE 35.8 mph - -   Clear
1:25 PM 41.0 °F 28.2 °F 35.6 °F 81% 29.30 in 6.2 mi SSE 41.4 mph - N/A   Unknown
1:55 PM 41.0 °F 28.0 °F 35.6 °F 81% 29.30 in 6.2 mi SSE 42.6 mph - N/A   Unknown
2:00 PM 42 °F - 36 °F 72% 29.31 in 9 mi SSE 33.6 mph - -  
2:25 PM 41.0 °F 27.7 °F 35.6 °F 81% 29.30 in 6.2 mi SSE 44.9 mph - N/A   Unknown
2:55 PM 42.8 °F 30.3 °F 35.6 °F 76% 29.30 in 6.2 mi SE 44.9 mph - N/A   Unknown
3:00 PM 43 °F - 36 °F 68% 29.31 in 9 mi SE 38.0 mph - -  
3:25 PM 42.8 °F 30.0 °F 35.6 °F 76% 29.30 in 6.2 mi SE 47.2 mph - N/A   Unknown
3:55 PM 42.8 °F 30.0 °F 35.6 °F 76% 29.30 in 6.2 mi SE 47.2 mph - N/A   Unknown
4:00 PM 43 °F - 36 °F 68% 29.32 in 4 mi SSE 40.3 mph - - Rain Rain Showers
4:25 PM 42.8 °F 30.1 °F 35.6 °F 76% 29.30 in 3.1 mi SSE 46.0 mph - N/A   Unknown
4:55 PM 42.8 °F 30.1 °F 35.6 °F 76% 29.33 in 5.0 mi SE 46.0 mph 58.7 mph N/A   Unknown
5:00 PM 44 °F - 35 °F 61% 29.34 in 4 mi SE 40.3 mph - -   Unknown Precipitation
5:25 PM 44.6 °F 33.2 °F 35.6 °F 71% 29.33 in 6.2 mi SSE 41.4 mph - N/A   Unknown
5:55 PM 44.6 °F 32.8 °F 35.6 °F 71% 29.33 in 6.2 mi SE 44.9 mph - N/A   Unknown
6:00 PM 44 °F - 36 °F 64% 29.34 in 10 mi SE 35.8 mph - -   Unknown Precipitation
6:25 PM 44.6 °F 33.2 °F 35.6 °F 71% 29.36 in 6.2 mi SE 41.4 mph - N/A   Unknown
6:55 PM 44.6 °F 33.5 °F 35.6 °F 71% 29.36 in 6.2 mi SE 39.1 mph - N/A   Unknown
7:00 PM 44 °F - 36 °F 64% 29.38 in 10 mi SSE 31.3 mph - -   Clear
7:25 PM 44.6 °F 33.3 °F 35.6 °F 71% 29.39 in 6.2 mi SE 40.3 mph - N/A   Unknown
7:55 PM 44.6 °F 33.5 °F 35.6 °F 71% 29.39 in 6.2 mi SE 39.1 mph - N/A   Unknown
8:00 PM 44 °F - 34 °F 58% 29.41 in 12 mi SE 29.1 mph - -  
8:25 PM 44.6 °F 33.5 °F 35.6 °F 71% 29.39 in 6.2 mi SE 39.1 mph - N/A   Unknown
8:55 PM 44.6 °F 33.3 °F 35.6 °F 71% 29.42 in 6.2 mi SE 40.3 mph - N/A   Unknown
9:00 PM 44 °F - 35 °F 62% 29.43 in 11 mi SE 33.6 mph - -  
9:25 PM 44.6 °F 33.6 °F 35.6 °F 71% 29.42 in 6.2 mi SE 38.0 mph - N/A   Unknown
9:55 PM 44.6 °F 33.5 °F 35.6 °F 71% 29.42 in 6.2 mi SE 39.1 mph - N/A   Unknown
10:00 PM 44 °F - 36 °F 65% 29.45 in 11 mi SE 31.3 mph - -  
10:25 PM 42.8 °F 31.4 °F 35.6 °F 76% 29.44 in 6.2 mi SE 35.7 mph - N/A   Unknown
10:55 PM 42.8 °F 31.6 °F 35.6 °F 76% 29.44 in 6.2 mi SE 34.5 mph - N/A   Unknown
11:00 PM 43 °F - 35 °F 66% 29.47 in 11 mi SE 26.8 mph - -  
11:25 PM 42.8 °F 31.8 °F 35.6 °F 76% 29.44 in 6.2 mi SE 33.4 mph - N/A   Unknown
11:55 PM 42.8 °F 31.8 °F 35.6 °F 76% 29.47 in 6.2 mi SE 33.4 mph - N/A   Unknown